TimeAKDT,TemperatureF,Dew PointF,Humidity,Sea Level PressureIn,VisibilityMPH,Wind Direction,Wind SpeedMPH,Gust SpeedMPH,PrecipitationIn,Events,Conditions,WindDirDegrees,DateUTC
12:16 AM,37.4,17.6,45,29.78,10.0,NW,12.7,16.1,N/A,,Partly Cloudy,310,2012-10-20 08:16:00
12:36 AM,37.4,17.6,45,29.78,10.0,NW,10.4,-,N/A,,Clear,320,2012-10-20 08:36:00
12:56 AM,35.6,17.6,48,29.79,10.0,NNW,10.4,-,N/A,,Clear,340,2012-10-20 08:56:00
1:16 AM,37.4,17.6,45,29.80,10.0,NNW,11.5,-,N/A,,Clear,330,2012-10-20 09:16:00
1:36 AM,37.4,19.4,48,29.80,10.0,NNW,12.7,-,N/A,,Partly Cloudy,330,2012-10-20 09:36:00
1:56 AM,37.4,17.6,45,29.80,10.0,NNW,10.4,-,N/A,,Mostly Cloudy,330,2012-10-20 09:56:00
2:16 AM,37.4,19.4,48,29.81,10.0,NNW,9.2,-,N/A,,Overcast,330,2012-10-20 10:16:00
2:36 AM,37.4,19.4,48,29.81,10.0,NW,10.4,-,N/A,,Overcast,320,2012-10-20 10:36:00
2:56 AM,35.6,19.4,52,29.81,10.0,NNW,9.2,-,N/A,,Overcast,330,2012-10-20 10:56:00
3:16 AM,35.6,19.4,52,29.82,10.0,North,9.2,-,N/A,,Overcast,350,2012-10-20 11:16:00
3:36 AM,37.4,17.6,45,29.82,10.0,NNW,9.2,-,N/A,,Overcast,340,2012-10-20 11:36:00
3:56 AM,37.4,17.6,45,29.82,10.0,NNW,10.4,-,N/A,,Overcast,340,2012-10-20 11:56:00
4:16 AM,37.4,17.6,45,29.83,10.0,North,9.2,-,N/A,,Overcast,350,2012-10-20 12:16:00
4:36 AM,37.4,15.8,41,29.83,10.0,North,9.2,-,N/A,,Overcast,350,2012-10-20 12:36:00
4:56 AM,37.4,17.6,45,29.83,10.0,NNW,10.4,-,N/A,,Overcast,330,2012-10-20 12:56:00
5:16 AM,35.6,17.6,48,29.83,10.0,NW,9.2,-,N/A,,Overcast,320,2012-10-20 13:16:00
5:36 AM,37.4,17.6,45,29.84,10.0,NNW,9.2,-,N/A,,Overcast,340,2012-10-20 13:36:00
5:56 AM,37.4,17.6,45,29.85,10.0,NW,9.2,-,N/A,,Overcast,320,2012-10-20 13:56:00
6:16 AM,35.6,17.6,48,29.85,10.0,NW,6.9,-,N/A,,Overcast,320,2012-10-20 14:16:00
6:36 AM,35.6,17.6,48,29.86,10.0,North,10.4,-,N/A,,Overcast,350,2012-10-20 14:36:00
6:56 AM,35.6,17.6,48,29.86,10.0,North,12.7,-,N/A,,Overcast,350,2012-10-20 14:56:00
7:16 AM,37.4,17.6,45,29.86,10.0,North,9.2,-,N/A,,Overcast,360,2012-10-20 15:16:00
7:36 AM,35.6,17.6,48,29.87,10.0,North,8.1,-,N/A,,Overcast,360,2012-10-20 15:36:00
7:56 AM,35.6,17.6,48,29.87,10.0,North,9.2,-,N/A,,Overcast,350,2012-10-20 15:56:00
8:16 AM,35.6,17.6,48,29.88,10.0,North,10.4,-,N/A,,Scattered Clouds,350,2012-10-20 16:16:00
8:36 AM,35.6,17.6,48,29.88,10.0,NNW,5.8,-,N/A,,Scattered Clouds,330,2012-10-20 16:36:00
8:56 AM,37.4,17.6,45,29.88,10.0,North,8.1,-,N/A,,Partly Cloudy,350,2012-10-20 16:56:00
9:16 AM,37.4,17.6,45,29.88,10.0,NNW,8.1,-,N/A,,Scattered Clouds,340,2012-10-20 17:16:00
9:36 AM,37.4,17.6,45,29.89,10.0,NNW,6.9,-,N/A,,Scattered Clouds,340,2012-10-20 17:36:00
9:56 AM,37.4,17.6,45,29.89,10.0,North,9.2,-,N/A,,Mostly Cloudy,350,2012-10-20 17:56:00
10:16 AM,39.2,17.6,42,29.89,10.0,North,10.4,-,N/A,,Partly Cloudy,350,2012-10-20 18:16:00
10:36 AM,39.2,17.6,42,29.90,10.0,North,10.4,-,N/A,,Partly Cloudy,350,2012-10-20 18:36:00
10:56 AM,39.2,15.8,39,29.90,10.0,North,10.4,17.3,N/A,,Clear,350,2012-10-20 18:56:00
11:16 AM,39.2,17.6,42,29.91,10.0,North,9.2,-,N/A,,Clear,350,2012-10-20 19:16:00
11:36 AM,39.2,17.6,42,29.91,10.0,NNW,11.5,-,N/A,,Clear,340,2012-10-20 19:36:00
11:56 AM,42.8,17.6,36,29.91,10.0,North,10.4,-,N/A,,Clear,10,2012-10-20 19:56:00
12:16 PM,42.8,17.6,36,29.91,10.0,North,11.5,16.1,N/A,,Clear,10,2012-10-20 20:16:00
12:36 PM,42.8,15.8,34,29.91,10.0,North,13.8,18.4,N/A,,Clear,10,2012-10-20 20:36:00
12:56 PM,44.6,17.6,34,29.91,10.0,North,15.0,24.2,N/A,,Clear,10,2012-10-20 20:56:00
1:16 PM,44.6,17.6,34,29.92,10.0,North,11.5,17.3,N/A,,Clear,360,2012-10-20 21:16:00
1:36 PM,44.6,15.8,31,29.92,10.0,North,11.5,21.9,N/A,,Partly Cloudy,360,2012-10-20 21:36:00
1:56 PM,44.6,15.8,31,29.92,10.0,North,16.1,23.0,N/A,,Partly Cloudy,360,2012-10-20 21:56:00
2:16 PM,42.8,15.8,34,29.93,10.0,North,19.6,25.3,N/A,,Partly Cloudy,360,2012-10-20 22:16:00
2:36 PM,42.8,15.8,34,29.94,10.0,NNE,13.8,20.7,N/A,,Scattered Clouds,20,2012-10-20 22:36:00
2:56 PM,44.6,15.8,31,29.94,10.0,North,13.8,25.3,N/A,,Mostly Cloudy,10,2012-10-20 22:56:00
3:16 PM,42.8,15.8,34,29.94,10.0,North,11.5,17.3,N/A,,Mostly Cloudy,360,2012-10-20 23:16:00
3:36 PM,42.8,15.8,34,29.95,10.0,North,13.8,19.6,N/A,,Scattered Clouds,360,2012-10-20 23:36:00
3:56 PM,42.8,14.0,31,29.95,10.0,North,12.7,-,N/A,,Partly Cloudy,10,2012-10-20 23:56:00
4:16 PM,41.0,14.0,33,29.95,10.0,North,12.7,23.0,N/A,,Partly Cloudy,360,2012-10-21 00:16:00
4:36 PM,41.0,14.0,33,29.96,10.0,North,12.7,23.0,N/A,,Clear,360,2012-10-21 00:36:00
4:56 PM,41.0,14.0,33,29.96,10.0,North,12.7,18.4,N/A,,Clear,360,2012-10-21 00:56:00
5:16 PM,39.2,14.0,36,29.97,10.0,North,11.5,-,N/A,,Clear,350,2012-10-21 01:16:00
5:36 PM,39.2,14.0,36,29.97,10.0,North,10.4,-,N/A,,Clear,360,2012-10-21 01:36:00
5:56 PM,39.2,14.0,36,29.98,10.0,North,11.5,19.6,N/A,,Clear,360,2012-10-21 01:56:00
6:36 PM,39.2,12.2,33,29.99,10.0,North,8.1,-,N/A,,Clear,360,2012-10-21 02:36:00
6:56 PM,37.4,14.0,38,29.99,10.0,NNW,9.2,-,N/A,,Clear,340,2012-10-21 02:56:00
7:16 PM,37.4,14.0,38,30.00,10.0,NNW,11.5,18.4,N/A,,Clear,340,2012-10-21 03:16:00
7:36 PM,37.4,12.2,36,30.00,10.0,North,11.5,-,N/A,,Clear,350,2012-10-21 03:36:00
7:56 PM,37.4,12.2,36,30.01,10.0,North,11.5,18.4,N/A,,Clear,350,2012-10-21 03:56:00
8:16 PM,37.4,12.2,36,30.01,10.0,NNW,10.4,-,N/A,,Clear,340,2012-10-21 04:16:00
8:36 PM,37.4,14.0,38,30.02,10.0,North,9.2,-,N/A,,Clear,350,2012-10-21 04:36:00
8:56 PM,37.4,12.2,36,30.02,10.0,NNW,10.4,-,N/A,,Clear,340,2012-10-21 04:56:00
9:16 PM,37.4,12.2,36,30.03,10.0,North,10.4,18.4,N/A,,Clear,360,2012-10-21 05:16:00
9:36 PM,37.4,12.2,36,30.04,10.0,North,12.7,21.9,N/A,,Clear,350,2012-10-21 05:36:00
9:56 PM,37.4,12.2,36,30.05,10.0,North,15.0,23.0,N/A,,Clear,360,2012-10-21 05:56:00
10:16 PM,37.4,12.2,36,30.05,10.0,North,12.7,19.6,N/A,,Clear,360,2012-10-21 06:16:00
10:36 PM,37.4,10.4,33,30.06,10.0,NNW,15.0,24.2,N/A,,Clear,340,2012-10-21 06:36:00
10:56 PM,35.6,12.2,38,30.07,10.0,North,11.5,20.7,N/A,,Clear,350,2012-10-21 06:56:00
11:16 PM,35.6,12.2,38,30.07,10.0,NNW,10.4,19.6,N/A,,Clear,330,2012-10-21 07:16:00
11:36 PM,35.6,12.2,38,30.07,10.0,NNW,11.5,24.2,N/A,,Clear,340,2012-10-21 07:36:00
11:56 PM,35.6,10.4,35,30.08,10.0,North,10.4,-,N/A,,Clear,350,2012-10-21 07:56:00